Weather History for Petersburg, WV

Change the Weather History Date:

Tuesday, October 9, 2012

  Actual Average (KEKN) Record (KEKN)
Temperature  
Mean Temperature 50 °F 53 °F  
Max Temperature 61 °F 66 °F 86 °F (1905)
Min Temperature 40 °F 41 °F 23 °F (1978)
Degree Days  
Heating Degree Days 14 12  
Month to date heating degree days 94  
Since 1 July heating degree days 254  
Cooling Degree Days 0 0  
Month to date cooling degree days 0  
Year to date cooling degree days 471  
Moisture  
Dew Point 45 °F    
Average Humidity 75    
Maximum Humidity 91    
Minimum Humidity 54    
Precipitation  
Precipitation 0.00 in 0.10 in 1.49 in (1976)
Month to date precipitation 0.84  
Year to date precipitation 37.28  
Snow  
Snow 0.00 in - - ()
Month to date snowfall  
Since 1 September snowfall  
Snow Depth -    
Sea Level Pressure  
Sea Level Pressure 30.13 in    
Wind  
Wind Speed 0 mph (SE)    
Max Wind Speed 4 mph    
Max Gust Speed -    
Visibility 10 miles    
Events      
T = Trace of Precipitation, MM = Missing Value Source: NWS Daily Summary

Daily Weather History Graph

Daily Weather History Graph

Search for Another Location

Airport:

Trip Planner

Search our weather history database for the weather conditions in past years. The results will help you decide how hot, cold, wet, or windy it might be!

Date:

Astronomy

Oct. 09, 2012 Rise Set
Actual Time 7:20 AM EDT 6:46 PM EDT
Civil Twilight 6:53 AM EDT 7:12 PM EDT
Nautical Twilight 6:22 AM EDT 7:43 PM EDT
Astronomical Twilight 5:51 AM EDT 8:14 PM EDT
Moon 12:58 AM EDT (10/9) 3:09 PM EDT (10/9)
Length of Visible Light 12h 18m
Length of Day
11h 25m
Last Quarter, 37% of the Moon is Illuminated
Oct 9
Last Quarter
Oct 15
New
Oct 21
First Quarter
Oct 29
Full
Nov 6
Last Quarter

Hourly Weather History & Observations

Time (EDT) Temp. Dew Point Humidity Pressure Visibility Wind Dir Wind Speed Gust Speed Precip Events Conditions
12:15 AM 41.4 °F 37.9 °F 88% 30.25 in 10.0 mi Calm Calm - N/A   Overcast
12:35 AM 41.5 °F 38.3 °F 88% 30.25 in 10.0 mi Calm Calm - N/A   Overcast
12:55 AM 42.3 °F 38.8 °F 88% 30.25 in 10.0 mi Calm Calm - N/A   Overcast
1:15 AM 42.8 °F 39.4 °F 88% 30.24 in 10.0 mi Calm Calm - N/A   Overcast
1:35 AM 43.2 °F 39.4 °F 86% 30.24 in 10.0 mi Calm Calm - N/A   Overcast
1:55 AM 43.3 °F 39.6 °F 87% 30.23 in 10.0 mi Calm Calm - N/A   Overcast
2:15 AM 43.3 °F 39.7 °F 87% 30.24 in 10.0 mi Calm Calm - N/A   Overcast
2:35 AM 43.0 °F 39.9 °F 89% 30.23 in 10.0 mi Calm Calm - N/A   Overcast
4:55 AM 40.6 °F 38.1 °F 91% 30.21 in 7.0 mi Calm Calm - N/A   Overcast
12:15 PM 50.7 °F 41.4 °F 70% 30.20 in 10.0 mi Calm Calm - N/A   Unknown
12:35 PM 52.9 °F 42.3 °F 67% 30.19 in 10.0 mi Calm Calm - N/A   Overcast
12:55 PM 54.0 °F 42.4 °F 65% 30.19 in 10.0 mi Calm Calm - N/A   Overcast
1:15 PM 54.5 °F 41.9 °F 62% 30.17 in 10.0 mi Calm Calm - N/A   Overcast
1:35 PM 57.9 °F 43.5 °F 59% 30.16 in 10.0 mi Calm Calm - N/A   Overcast
1:55 PM 56.8 °F 41.0 °F 55% 30.14 in 10.0 mi Calm Calm - N/A   Overcast
2:15 PM 57.9 °F 41.5 °F 54% 30.14 in 10.0 mi Calm Calm - N/A   Overcast
2:35 PM 57.4 °F 40.8 °F 54% 30.13 in 10.0 mi Calm Calm - N/A   Overcast
2:55 PM 57.6 °F 42.1 °F 56% 30.12 in 10.0 mi Calm Calm - N/A   Overcast
3:15 PM 57.7 °F 42.3 °F 56% 30.12 in 10.0 mi Calm Calm - N/A   Mostly Cloudy
3:35 PM 59.5 °F 43.2 °F 55% 30.10 in 10.0 mi Calm Calm - N/A   Scattered Clouds
3:55 PM 59.4 °F 43.2 °F 55% 30.10 in 10.0 mi Calm Calm - N/A   Clear
4:15 PM 60.4 °F 44.8 °F 56% 30.10 in 10.0 mi Calm Calm - N/A   Clear
4:35 PM 60.6 °F 45.3 °F 57% 30.10 in 10.0 mi SSE 3.5 mph - N/A   Scattered Clouds
4:55 PM 61.2 °F 45.1 °F 56% 30.10 in 10.0 mi SE 3.5 mph - N/A   Mostly Cloudy
5:15 PM 60.4 °F 46.8 °F 61% 30.10 in 10.0 mi Calm Calm - N/A   Overcast
5:35 PM 60.3 °F 46.8 °F 61% 30.09 in 10.0 mi Calm Calm - N/A   Overcast
5:55 PM 59.7 °F 46.6 °F 62% 30.10 in 10.0 mi Calm Calm - N/A   Overcast
6:15 PM 59.9 °F 46.6 °F 61% 30.10 in 10.0 mi Calm Calm - N/A   Overcast
6:35 PM 59.0 °F 49.3 °F 70% 30.10 in 10.0 mi Calm Calm - N/A   Overcast
6:55 PM 57.4 °F 50.0 °F 76% 30.09 in 10.0 mi Calm Calm - N/A   Overcast
7:15 PM 56.3 °F 50.9 °F 82% 30.09 in 10.0 mi Calm Calm - N/A   Overcast
7:35 PM 55.2 °F 50.0 °F 83% 30.09 in 10.0 mi Calm Calm - N/A   Overcast
7:55 PM 54.5 °F 49.3 °F 83% 30.09 in 10.0 mi Calm Calm - N/A   Overcast
8:15 PM 52.7 °F 48.2 °F 85% 30.09 in 10.0 mi Calm Calm - N/A   Mostly Cloudy
8:35 PM 50.9 °F 47.1 °F 87% 30.09 in 10.0 mi Calm Calm - N/A   Scattered Clouds
8:55 PM 50.0 °F 46.6 °F 88% 30.09 in 10.0 mi Calm Calm - N/A   Scattered Clouds
9:15 PM 49.8 °F 46.9 °F 90% 30.09 in 10.0 mi Calm Calm - N/A   Mostly Cloudy
9:35 PM 50.4 °F 47.7 °F 90% 30.09 in 10.0 mi Calm Calm - N/A   Overcast
9:55 PM 51.1 °F 48.4 °F 90% 30.09 in 10.0 mi Calm Calm - N/A   Overcast
10:15 PM 51.1 °F 48.4 °F 90% 30.09 in 10.0 mi Calm Calm - N/A   Overcast
10:35 PM 51.6 °F 48.9 °F 90% 30.09 in 10.0 mi Calm Calm - N/A   Overcast
10:55 PM 51.1 °F 48.4 °F 90% 30.07 in 10.0 mi Calm Calm - N/A   Overcast
11:15 PM 51.3 °F 48.4 °F 90% 30.07 in 10.0 mi Calm Calm - N/A   Overcast
11:35 PM 51.3 °F 48.6 °F 90% 30.07 in 10.0 mi Calm Calm - N/A   Overcast
11:55 PM 50.9 °F 48.2 °F 90% 30.06 in 10.0 mi Calm Calm - N/A   Overcast